Temp
73 73 75 77 77 74 73 73 73 73 74 74 77 76 78 78 77 78 75 75 73 74 74 71 73 72 70 70 69 71 72 72
74 74 76 77 76 74 73 72 73 71 75 74 75 74 76 76 78 76 75 75 73 73 73 71 71 69 70 69 68 66 67 69
74 74 75 75 75 75 75 75 75 75 77 77 77 77 77 78 77 75 74 74 74 73 73 70 70 71 68 67 67 66 68 68
74 74 74 75 75 75 76 76 77 76 76 77 76 77 76 75 74 70 68 64 69 72 69 66 67 70 67 67 67 66 65 65
78 76 75 75 75 76 77 77 77 77 76 76 74 74 73 75 75 75 73 71 69 71 68 66 65 69 68 67 67 66 65 63
79 79 78 78 77 76 76 77 77 77 77 76 75 74 77 78 75 72 70 69 69 69 67 65 64 66 67 66 64 64 64 64
81 82 82 80 80 77 76 76 76 77 75 74 74 73 74 75 71 70 70 67 66 66 67 66 64 66 65 64 64 63 58 54
79 81 80 79 78 76 75 76 76 76 75 74 73 72 72 71 71 70 69 65 59 59 62 64 65 66 65 63 56 57 56 56
81 80 81 80 78 76 76 73 73 76 73 73 74 71 69 71 72 70 65 60 58 61 61 62 64 62 58 52 54 56 57 57
80 82 82 80 79 76 75 76 77 76 70 71 69 67 67 69 70 66 59 58 59 61 60 59 57 60 57 51 53 49 51 54
76 78 79 81 80 78 76 76 76 76 74 71 70 68 68 69 68 61 60 60 60 59 56 58 58 54 51 50 49 49 50 51
74 75 77 77 78 77 75 75 76 76 75 74 71 69 68 68 65 63 64 62 60 56 58 59 55 50 48 46 46 48 49 47
74 75 75 75 75 76 75 76 77 77 76 74 72 70 67 65 63 62 61 57 56 56 55 51 50 47 46 46 46 45 46 47
75 74 75 75 74 75 75 74 74 75 75 72 68 64 60 58 57 55 54 53 52 51 50 51 49 47 45 45 46 46 46 50
75 74 74 73 73 73 73 70 71 69 67 65 61 59 57 56 55 54 52 53 51 50 49 47 46 45 48 47 46 46 48 50
71 73 73 73 72 71 71 69 67 67 64 61 58 57 57 58 59 59 57 54 52 51 48 44 46 47 46 46 45 45 46 47
68 69 69 68 68 69 66 66 64 66 64 61 60 60 60 57 54 53 52 49 50 48 50 48 46 47 40 39 41 44 46 51
64 64 64 64 64 65 64 63 64 62 61 59 57 56 54 53 54 53 51 51 48 47 46 45 45 45 40 40 39 49 50 51
61 62 61 62 63 63 62 63 62 60 59 57 56 55 54 54 53 52 49 48 46 45 44 46 47 48 41 39 38 48 50 51
MSLP
1014.72 1015.57 1015.93 1016.32 1017.02 1017.95 1018.56 1019.06 1019.23 1019.58 1019.89 1020.24 1020.41 1020.75 1020.67 1020.82 1021.04 1021.33 1021.99 1022.17 1022.89 1022.87 1023.05 1023.66 1023.72 1024.04 1024.56 1024.72 1025.01 1025.10 1025.18 1025.49
1014.29 1014.99 1015.47 1015.87 1016.57 1017.41 1017.98 1018.48 1018.78 1019.23 1019.36 1019.54 1019.66 1019.89 1020.20 1020.59 1020.76 1021.22 1021.65 1021.95 1022.43 1022.74 1022.79 1023.32 1023.63 1023.94 1024.26 1024.80 1024.98 1025.26 1025.49 1025.79
1013.41 1014.22 1014.74 1015.28 1015.83 1016.51 1017.12 1017.58 1018.13 1018.56 1018.65 1018.98 1019.20 1019.38 1019.78 1020.02 1020.41 1021.16 1021.45 1021.75 1021.95 1022.30 1022.42 1023.14 1023.38 1023.65 1024.35 1024.68 1024.82 1024.91 1025.17 1025.60
1012.26 1013.15 1013.90 1014.54 1014.96 1015.64 1016.24 1016.84 1017.44 1017.98 1018.23 1018.70 1019.01 1019.18 1019.45 1019.92 1020.26 1021.09 1021.65 1022.20 1021.98 1022.03 1022.83 1023.06 1023.30 1023.44 1023.96 1024.35 1024.60 1024.74 1024.79 1025.56
1010.90 1011.93 1012.75 1013.52 1014.27 1015.04 1015.64 1016.14 1016.65 1017.27 1017.90 1018.06 1018.31 1018.33 1018.57 1019.00 1019.55 1020.14 1020.59 1021.42 1021.84 1021.90 1022.43 1022.92 1023.07 1023.18 1023.54 1024.02 1024.45 1024.80 1024.97 1024.90
1009.48 1010.24 1011.30 1012.34 1013.33 1014.02 1014.84 1015.38 1015.89 1016.49 1017.08 1017.48 1017.79 1017.91 1017.85 1018.26 1019.19 1019.83 1020.42 1021.11 1021.42 1021.77 1022.33 1022.86 1023.11 1023.05 1023.35 1023.74 1024.34 1024.59 1024.77 1024.76
1008.35 1009.12 1010.15 1010.98 1012.11 1013.02 1013.93 1014.53 1015.06 1015.75 1016.45 1016.97 1017.01 1017.21 1017.44 1017.79 1018.91 1019.40 1019.91 1020.67 1021.14 1021.69 1022.09 1022.55 1022.88 1022.84 1023.21 1023.73 1023.97 1024.26 1024.53 1025.09
1007.51 1008.17 1008.94 1009.97 1010.91 1012.09 1013.02 1013.60 1014.04 1014.74 1015.41 1015.99 1016.34 1016.76 1017.18 1017.61 1018.23 1018.70 1019.13 1020.05 1020.88 1021.30 1021.72 1021.96 1022.33 1022.62 1022.99 1023.44 1024.32 1024.73 1025.10 1025.09
1006.50 1007.33 1008.05 1008.93 1009.99 1011.27 1012.15 1012.68 1013.14 1013.74 1014.62 1015.20 1015.72 1016.49 1017.04 1017.29 1017.51 1018.04 1018.73 1019.52 1020.01 1020.64 1021.22 1021.65 1021.87 1022.54 1023.31 1024.13 1024.51 1024.80 1025.22 1025.56
1005.96 1006.44 1007.26 1008.30 1009.33 1010.31 1011.23 1011.86 1012.50 1013.17 1014.20 1014.88 1015.58 1016.51 1016.82 1016.97 1017.30 1018.04 1018.80 1019.32 1019.83 1020.16 1020.92 1021.27 1021.88 1022.30 1023.12 1024.00 1024.53 1024.94 1025.36 1025.58
1006.15 1006.59 1007.08 1007.84 1008.71 1009.93 1010.89 1011.51 1011.97 1012.63 1013.62 1014.50 1015.06 1015.58 1016.05 1016.41 1016.82 1017.75 1018.15 1018.70 1019.26 1020.01 1020.65 1020.99 1021.50 1022.54 1023.41 1024.01 1024.69 1025.13 1025.48 1025.55
1006.33 1006.80 1007.49 1008.13 1008.80 1009.64 1010.42 1011.08 1011.53 1012.14 1012.86 1013.55 1014.31 1014.91 1015.41 1015.85 1016.43 1017.18 1017.65 1018.10 1018.73 1019.42 1019.93 1020.64 1021.48 1022.43 1023.21 1023.97 1024.40 1025.39 1025.88 1025.55
1006.44 1006.90 1007.51 1008.12 1008.83 1009.44 1010.03 1010.66 1011.12 1011.63 1012.26 1013.01 1013.68 1014.42 1015.15 1015.74 1016.30 1016.96 1017.43 1018.31 1018.92 1019.43 1020.13 1020.58 1021.45 1022.10 1022.96 1024.02 1024.79 1025.23 1025.48 1025.33
1006.61 1007.14 1007.49 1008.04 1008.71 1009.34 1010.02 1010.80 1011.26 1011.66 1012.18 1012.99 1013.84 1014.80 1015.59 1016.31 1016.93 1017.40 1017.96 1018.42 1018.86 1019.65 1020.46 1021.09 1022.04 1022.52 1023.26 1023.59 1024.39 1024.90 1024.93 1024.61
1006.79 1007.38 1007.80 1008.47 1009.06 1009.65 1010.27 1011.08 1011.64 1012.42 1013.10 1013.66 1014.43 1015.23 1015.96 1016.59 1017.05 1017.67 1018.21 1018.73 1019.46 1020.16 1020.96 1021.59 1022.04 1022.70 1023.38 1023.77 1024.08 1024.36 1024.33 1024.16
1007.26 1007.58 1008.02 1008.66 1009.33 1009.93 1010.52 1011.47 1012.04 1012.58 1013.29 1014.17 1015.15 1015.91 1016.37 1016.79 1017.12 1017.66 1018.34 1019.06 1019.89 1020.51 1021.10 1021.66 1022.33 1022.83 1023.23 1023.59 1023.96 1023.96 1023.86 1023.58
1008.03 1008.50 1008.91 1009.49 1010.01 1010.39 1011.38 1011.92 1012.66 1013.07 1013.86 1014.71 1015.50 1015.89 1016.50 1017.35 1018.10 1018.70 1019.37 1020.03 1020.53 1020.94 1021.44 1022.00 1022.37 1022.80 1023.21 1023.62 1023.90 1023.67 1023.31 1022.62
1008.96 1009.54 1010.06 1010.45 1010.95 1011.30 1011.95 1012.75 1013.37 1013.89 1014.58 1015.41 1016.18 1016.92 1017.63 1018.32 1018.83 1019.25 1019.76 1020.39 1020.94 1021.42 1021.75 1022.13 1022.46 1022.74 1023.14 1023.29 1023.49 1023.31 1022.65 1022.10
1010.04 1010.67 1011.17 1011.60 1012.02 1012.47 1012.97 1013.50 1014.06 1014.71 1015.42 1016.22 1016.95 1017.49 1018.10 1018.74 1019.36 1019.95 1020.62 1020.90 1021.36 1021.63 1021.88 1022.07 1022.19 1022.29 1022.53 1022.87 1023.14 1022.84 1022.09 1021.52
Wind_Speed
16 18 18 19 19 18 18 14 13 12 9 9 10 10 9 7 7 7 9 7 10 8 7 9 8 7 6 6 5 4 3 2
17 17 18 19 19 19 20 17 15 11 10 10 9 10 9 9 7 8 9 9 10 9 8 10 8 8 8 7 6 6 5 3
18 19 18 19 20 20 20 19 16 14 10 9 9 9 9 9 8 8 9 10 11 10 9 9 10 8 9 8 7 5 3 3
18 19 20 20 21 20 20 20 17 15 14 9 9 8 6 9 8 7 8 8 9 10 11 9 9 9 8 8 7 7 5 4
17 19 20 20 20 19 19 19 18 16 16 14 15 12 12 10 10 9 10 12 11 11 11 11 10 8 9 8 7 6 5 4
21 21 21 21 19 19 18 18 18 17 17 16 12 14 10 8 8 11 11 10 11 11 11 11 10 8 10 11 10 9 6 4
19 19 18 18 18 18 18 20 19 18 17 18 18 17 15 11 11 10 9 8 8 11 13 12 11 11 12 11 11 10 6 4
20 19 20 19 19 19 17 19 20 19 18 18 19 17 16 15 14 11 11 9 7 10 11 13 11 12 12 10 5 5 6 8
21 20 18 19 19 18 18 19 18 19 18 19 16 15 9 12 14 11 9 9 9 11 12 12 14 11 8 7 5 4 6 9
16 18 19 18 16 18 19 17 17 17 14 14 13 11 14 13 14 8 8 8 8 13 14 11 10 14 12 7 5 5 7 6
7 9 11 13 14 13 14 15 16 16 14 14 13 13 14 14 12 13 12 11 12 13 13 15 15 10 8 6 4 2 6 4
6 7 7 8 9 11 12 13 14 14 14 12 12 11 12 12 10 12 12 13 12 12 15 15 12 10 7 6 5 5 7 4
5 7 8 9 9 9 10 10 11 10 9 9 9 8 7 7 8 8 6 7 8 11 11 11 11 10 9 7 6 4 8 9
5 7 7 8 8 7 7 7 7 6 6 5 5 4 4 3 4 5 5 6 6 6 9 9 8 9 7 7 7 8 9 13
6 5 6 6 6 7 7 6 4 6 5 4 5 5 5 6 6 6 7 7 8 8 7 7 7 7 8 5 6 7 9 12
7 7 6 6 7 7 6 7 6 7 7 7 7 6 6 6 7 7 7 9 10 11 10 8 8 7 5 7 6 7 9 13
7 7 7 8 7 8 8 9 8 8 9 9 9 9 9 9 10 10 11 11 11 9 10 8 6 4 7 7 7 8 12 14
11 11 10 10 10 10 10 10 10 11 11 11 10 11 11 11 11 12 12 11 8 6 4 3 5 6 7 9 8 11 12 13
11 9 10 11 11 12 12 12 12 12 12 12 11 12 12 12 12 11 9 6 4 2 2 5 7 8 7 5 7 11 12 14
Wind_Direction
169 178 186 181 177 182 188 190 190 190 182 185 191 194 194 191 192 192 183 174 181 180 166 165 177 171 170 180 165 149 153 161
175 182 179 182 182 186 189 193 197 190 191 193 196 197 196 199 198 194 182 182 182 190 177 175 184 175 186 170 155 158 161 178
183 189 193 195 196 196 198 201 202 202 197 199 205 204 202 207 202 198 201 192 187 193 189 183 190 180 172 171 176 174 170 176
194 195 198 198 203 201 204 204 207 204 207 197 198 203 205 207 200 202 189 195 202 195 189 187 183 182 181 182 184 197 189 172
199 200 204 204 205 202 207 205 206 202 204 204 203 201 206 207 208 206 194 199 204 198 188 183 181 190 182 181 183 187 205 203
207 203 202 203 201 204 205 205 204 203 202 216 206 220 219 208 210 211 202 197 200 197 189 188 191 190 185 183 176 193 192 228
216 210 204 206 201 200 201 205 204 204 205 209 216 217 222 215 204 205 197 192 194 198 196 198 195 196 187 187 190 192 182 185
219 211 205 204 202 199 201 204 207 206 206 213 217 221 221 213 213 213 198 194 188 197 197 200 199 200 190 191 157 173 197 206
219 212 214 208 205 201 203 204 205 203 206 214 215 216 217 220 220 213 205 198 190 189 194 196 201 193 160 145 167 215 212 226
219 225 213 209 209 205 209 210 207 208 204 215 219 209 217 221 225 202 185 188 187 192 195 193 182 189 180 161 182 172 211 244
214 223 220 219 208 204 202 205 207 210 207 208 216 218 220 225 213 205 192 190 191 193 189 189 190 174 168 144 170 167 216 198
173 181 188 196 199 198 194 200 204 204 205 210 214 222 219 224 213 219 214 203 200 195 198 195 176 165 148 136 122 198 231 215
136 147 151 160 176 186 189 199 206 205 202 205 209 224 229 230 224 227 200 185 195 201 188 162 167 148 140 142 187 184 222 235
143 140 147 148 156 165 175 185 192 194 190 188 192 187 169 172 150 135 149 165 164 144 160 182 160 131 139 164 195 231 233 251
182 159 149 144 147 155 156 142 129 128 137 127 120 130 141 144 139 144 150 151 147 146 136 122 119 145 167 186 213 236 255 256
181 178 151 129 125 121 116 90 105 112 110 111 111 113 122 140 145 124 125 130 125 131 119 118 141 159 190 209 224 239 255 266
132 121 111 96 96 92 94 92 91 98 102 100 108 113 101 101 106 110 113 112 113 121 121 139 171 211 190 211 245 263 260 266
115 104 95 91 89 96 95 93 95 94 96 96 99 103 106 108 113 118 111 105 103 116 118 173 230 240 213 241 247 272 273 271
115 108 101 95 96 97 102 98 96 97 98 102 111 114 112 114 110 110 108 105 102 99 227 234 252 255 219 258 261 276 271 269